AirNav   Air Wisconsin Up To $57,000 Bonus
 
 1079 users online  

MO05 Truman Medical Center West Heliport
Kansas City, Missouri, USA

GOING TO KANSAS CITY?


FAA INFORMATION EFFECTIVE 08 OCTOBER 2020

Location

FAA Identifier: MO05
Lat/Long: 39-05-03.0000N 094-34-27.0000W
39-05.050000N 094-34.450000W
39.0841667,-94.5741667
(estimated)
Elevation: 983 ft. / 300 m (estimated)
Variation: 04E (1995)
Time zone: UTC -5 (UTC -6 during Standard Time)
Zip code: 64108

Heliport Operations

Heliport use: Private use, MEDICAL USE.
Activation date: 01/2000
Control tower: no
ARTCC: KANSAS CITY CENTER
FSS: COLUMBIA FLIGHT SERVICE STATION
Attendance: UNATNDD
Wind indicator: yes
Segmented circle: no
Lights: FOR PERIMETER LGTS CALL 816-373-4415.
Beacon: white-green-yellow (heliport)
FOR ROTG BCN CALL 816-373-4415.

Heliport Communications

WX ASOS at MKC (2.5 nm N): PHONE 816-329-2843
WX ASOS at LXT (12 nm SE): 124.175 (816-347-9807)
WX ASOS at MCI (14 nm NW): PHONE 816-329-2808
WX ASOS at OJC (16 nm SW): 119.35 (913-780-6969)
WX AWOS-3 at GPH (19 nm NE): 120.275 (816-407-3399)

Nearby radio navigation aids

VOR radial/distance  VOR name  Freq  Var
MCIr143/14.2KANSAS CITY VORTAC113.2505E
ANXr261/20.7NAPOLEON VORTAC114.0007E

Heliport Services

Runway Information

Helipad H1

Dimensions: 50 x 50 ft. / 15 x 15 m
Surface: concrete
Runway edge lights: PERI
Latitude: 39-05.050000N
Longitude: 094-34.450000W
Elevation: 983.0 ft.
Traffic pattern: leftleft

Heliport Ownership and Management from official FAA records

Ownership: Privately-owned
Owner: TRUMAN MEDICAL CENTER WEST
7900 LEE'S SUMMIT RD
KANSAS CITY, MO 64139
Phone 816-373-4415
EXT. 1292.
Manager: MICHAEL SULLIVAN
2301 HOLMES ST.
KANSAS CITY, MO 64108
Phone 816-404-2620
ASSOC. ADMIN./FACILITIES

Additional Remarks

OWNER DESIRES HELIPORT NOT BE CHARTED.
FOR CD CTC KANSAS CITY APCH AT 816-329-2710.

Instrument Procedures

There are no published instrument procedures at MO05.

Some nearby airports with instrument procedures:

KMKC - Charles B Wheeler Downtown Airport (2 nm N)
KLXT - Lee's Summit Municipal Airport (12 nm SE)
KMCI - Kansas City International Airport (14 nm NW)
KOJC - Johnson County Executive Airport (16 nm SW)
3GV - East Kansas City Airport (17 nm E)
KGPH - Midwest National Air Center Airport (19 nm NE)
 
Loc | Ops | Rwys | IFR | FBO | Links
Com | Nav | Svcs | Stats | Notes
Area around MO05 (Truman Medical Center West Heliport)
 
Road maps at: MapQuest Bing Google
 
Aerial photo
No photo
 
Sectional chart

 
Airport distance calculator
Flying to Truman Medical Center West Heliport? Find the distance to fly.

From to MO05

Sunrise and sunset
Times for 31-Oct-2020
 Local
(UTC-5)
 Zulu
(UTC)
Morning civil twilight07:1912:19
Sunrise07:4712:47
Sunset18:1723:17
Evening civil twilight18:4523:45

Current date and time
Zulu (UTC)  31-Oct-2020 19:33:25
Local (UTC-5)  31-Oct-2020 14:33:25
 
METAR
KMKC 
2nm NW 
311854Z 18017G23KT 10SM CLR 19/02 A2998 RMK AO2 PK WND 20027/1756 SLP149 T01890017
KLXT 
12nm SE 
311853Z AUTO 19020G28KT 10SM CLR 18/02 A3000 RMK AO2 PK WND 21031/1803 SLP157 T01780017
KMCI 
15nm NW 
311853Z 21019G27KT 10SM FEW140 19/03 A2997 RMK AO2 PK WND 21034/1814 SLP144 T01940033 $
KOJC 
16nm SW 
311853Z 21015G25KT 10SM CLR 17/04 A3000 RMK AO2 PK WND 20026/1757 SLP155 T01670039 $
KGPH 
19nm NE 
311915Z AUTO 20014G20KT 10SM CLR 19/00 A2997 RMK AO2
TAF
KMKC 
2nm NW 
311740Z 3118/0118 21018G28KT P6SM SKC FM010100 32012KT P6SM SKC
KMCI 
15nm NW 
311740Z 3118/0118 22017G27KT P6SM SKC FM010100 32012KT P6SM SKC
NOTAMs
Click for the latest NOTAMs
NOTAMs are issued by the DoD/FAA and will open in a separate window not controlled by AirNav.

 

 
 

Would you like to see your business listed on this page?

 If your business provides an interesting product or service to pilots, flight crews, aircraft, or users of the Truman Medical Center West Heliport, you should consider listing it here.  To start the listing process, click on the button below
 
Add a business
 

Other Pages about Truman Medical Center West Heliport

Update a link
 
Copyright © AirNav, LLC. All rights reserved. Privacy Policy  Contact